This is the latest recevied weather packets stored in our database for station/object KK4PWJ-13. If no packets are shown the sender has not sent any weather packets the latest 10 day(s).
| Time | Temp. | Humidity | Pressure | Rain* | Wind** | Luminosity | Snow |
|---|---|---|---|---|---|---|---|
| 1777729276 | 11.67° C | 82% | 1011.3 hPa | 0 mm | - | 101 W/m² | - |
| 1777728973 | 11.67° C | 83% | 1011.4 hPa | 0 mm | - | 79 W/m² | - |
| 1777728669 | 11.67° C | 82% | 1011.5 hPa | 0 mm | - | 55 W/m² | - |
| 1777728366 | 11.67° C | 85% | 1011.7 hPa | 0 mm | - | 36 W/m² | - |
| 1777728064 | 11.67° C | 87% | 1011.7 hPa | 0 mm | - | 38 W/m² | - |
| 1777727760 | 11.67° C | 85% | 1011.4 hPa | 0 mm | - | 56 W/m² | - |
| 1777727457 | 11.67° C | 83% | 1011.2 hPa | 0 mm | - | 64 W/m² | - |
| 1777727154 | 11.67° C | 84% | 1011.1 hPa | 0 mm | - | 55 W/m² | - |
| 1777726853 | 11.67° C | 85% | 1011.1 hPa | 0 mm | - | 52 W/m² | - |
| 1777726548 | 11.11° C | 89% | 1011.3 hPa | 0 mm | - | 43 W/m² | - |
| 1777726246 | 11.11° C | 87% | 1011.4 hPa | 0 mm | - | 38 W/m² | - |
| 1777725942 | 11.11° C | 87% | 1011.2 hPa | 0 mm | - | 44 W/m² | - |
| 1777725639 | 11.11° C | 88% | 1011.2 hPa | 0 mm | - | 35 W/m² | - |
| 1777725338 | 11.11° C | 89% | 1011.1 hPa | 0 mm | - | 26 W/m² | - |
| 1777725034 | 11.11° C | 88% | 1011.5 hPa | 0 mm | - | 26 W/m² | - |
| 1777724731 | 11.11° C | 88% | 1011.3 hPa | 0 mm | - | 26 W/m² | - |
| 1777724428 | 11.11° C | 89% | 1011.4 hPa | 0 mm | - | 23 W/m² | - |
| 1777724125 | 11.11° C | 88% | 1011.2 hPa | 0 mm | - | 23 W/m² | - |
| 1777723823 | 11.11° C | 90% | 1010.9 hPa | 0 mm | - | 24 W/m² | - |
| 1777723519 | 11.11° C | 90% | 1010.9 hPa | 0 mm | - | 26 W/m² | - |
| 1777722003 | 10.56° C | 93% | 1011.1 hPa | 0 mm | - | 38 W/m² | - |
| 1777721701 | 10.56° C | 93% | 1011.1 hPa | 0 mm | - | 25 W/m² | - |
| 1777721399 | 10.56° C | 94% | 1010.9 hPa | 0 mm | - | 18 W/m² | - |
| 1777721096 | 10.56° C | 94% | 1011 hPa | 0 mm | - | 21 W/m² | - |
| 1777720794 | 10.56° C | 94% | 1010.9 hPa | 0 mm | - | 13 W/m² | - |
* Rain latest hour (hover to see other rain measurements)
** Current wind speed in m/s (hover to see current wind gust speed)